Location: Chiroubles
(46.1812°N, 4.6660°E)
Time: 02:28:35
(UTC+00:00)

Cosmos 1536 - Pass Details

Date: 15 August 2020
Orbit: 541 x 558 km, 82.5° (Epoch: 19 September)

Event Time Altitude Azimuth Distance (km) Brightness Sun altitude
Exits shadow 22:02:32 54° 346° (NNW) 670 3.5 -25.8°
Drops below altitude 10° 22:05:43 10° 5° (N) 1,817 6.2 -26.1°
Sets 22:07:54 0° 8° (N) 2,714 7.2 -26.2°
